Location: Fornova de Taro
(44.7000°N, 10.1000°E)
Time: 02:21:27
(UTC+00:00)

USA 307 - Pass Details

Date: 26 May 2022
Orbit: 552 x 554 km, 54.0° (Epoch: 17 June)

Event Time Altitude Azimuth Distance (km) Brightness Sun altitude
Exits shadow 01:47:50 11° 276° (W) 1,800 5.1 -15.7°
Maximum altitude 01:51:31 33° 340° (NNW) 954 4.3 -15.3°
Drops below altitude 10° 01:55:20 10° 45° (NE) 1,845 6.9 -14.9°
Sets 01:57:45 0° 56° (NE) 2,743 7.9 -14.6°
